Weather History for Rogers City, MI

Change the Weather History Date:

Tuesday, October 1, 2013

  Actual Average (KAPN) Record (KAPN)
Temperature  
Mean Temperature 66 °F 52 °F  
Max Temperature 78 °F 62 °F 88 °F (1971)
Min Temperature 53 °F 41 °F 23 °F (1960)
Degree Days  
Heating Degree Days 0 13  
Month to date heating degree days 13  
Since 1 July heating degree days 370  
Cooling Degree Days 0 0  
Month to date cooling degree days 0  
Year to date cooling degree days 289  
Growing Degree Days 16 (Base 50)    
Moisture  
Dew Point 55 °F    
Average Humidity 71    
Maximum Humidity 84    
Minimum Humidity 50    
Precipitation  
Precipitation 0.00 in 0.09 in 0.71 in (1988)
Month to date precipitation 0.09  
Year to date precipitation 21.79  
Sea Level Pressure  
Sea Level Pressure 29.83 in    
Wind  
Wind Speed 11 mph (SSW)    
Max Wind Speed 17 mph    
Max Gust Speed 26 mph    
Visibility 10 miles    
Events      
T = Trace of Precipitation, MM = Missing Value Source: NWS Daily Summary

Daily Weather History Graph

Daily Weather History Graph

Search for Another Location

Airport:

Trip Planner

Search our weather history database for the weather conditions in past years. The results will help you decide how hot, cold, wet, or windy it might be!

Date:

Astronomy

Oct. 01, 2013 Rise Set
Actual Time 7:33 AM EDT 7:15 PM EDT
Civil Twilight 7:04 AM EDT 7:44 PM EDT
Nautical Twilight 6:29 AM EDT 8:18 PM EDT
Astronomical Twilight 5:55 AM EDT 8:53 PM EDT
Moon 3:58 AM EDT (10/1) 5:25 PM EDT (10/1)
Length of Visible Light 12h 40m
Length of Day
11h 41m
Waning Crescent, 12% of the Moon is Illuminated
Oct 1
Waning Crescent
Oct 4
New
Oct 11
First Quarter
Oct 18
Full
Oct 26
Last Quarter

Hourly Weather History & Observations

Time (EDT) Temp. Dew Point Humidity Pressure Visibility Wind Dir Wind Speed Gust Speed Precip Events Conditions
12:15 AM 56.3 °F 50.0 °F 79% 29.90 in 10.0 mi South 6.9 mph - N/A   Clear
12:35 AM 55.9 °F 49.6 °F 79% 29.90 in 10.0 mi SSW 9.2 mph - N/A   Clear
12:37 AM 56.1 °F 49.6 °F 79% 29.90 in 10.0 mi SSW 10.4 mph - N/A   Clear
1:21 AM 56.3 °F 49.5 °F 78% 29.90 in 10.0 mi SSW 11.5 mph - N/A   Clear
1:35 AM 56.3 °F 49.5 °F 78% 29.90 in 10.0 mi SSW 11.5 mph - N/A   Clear
1:55 AM 56.5 °F 49.6 °F 78% 29.90 in 10.0 mi SSW 10.4 mph - N/A   Clear
2:14 AM 56.5 °F 49.5 °F 77% 29.90 in 10.0 mi SSW 10.4 mph - N/A   Clear
2:35 AM 55.6 °F 49.3 °F 79% 29.90 in 10.0 mi SSW 11.5 mph - N/A   Clear
2:55 AM 55.4 °F 49.3 °F 80% 29.90 in 10.0 mi SSW 11.5 mph - N/A   Clear
3:14 AM 54.7 °F 49.3 °F 82% 29.90 in 10.0 mi SSW 11.5 mph - N/A   Clear
3:35 AM 54.5 °F 49.3 °F 83% 29.90 in 10.0 mi SSW 10.4 mph - N/A   Clear
3:55 AM 54.0 °F 49.1 °F 84% 29.90 in 10.0 mi SSW 10.4 mph - N/A   Clear
4:14 AM 54.0 °F 49.1 °F 84% 29.89 in 10.0 mi SSW 11.5 mph - N/A   Clear
4:35 AM 53.8 °F 49.1 °F 84% 29.89 in 10.0 mi SSW 10.4 mph 16.1 mph N/A   Clear
4:54 AM 53.8 °F 49.1 °F 84% 29.89 in 10.0 mi SSW 11.5 mph 17.3 mph N/A   Clear
5:15 AM 53.8 °F 48.9 °F 84% 29.88 in 10.0 mi SSW 11.5 mph - N/A   Clear
5:35 AM 54.1 °F 49.1 °F 83% 29.87 in 10.0 mi SSW 12.7 mph - N/A   Clear
5:54 AM 54.0 °F 48.9 °F 83% 29.87 in 10.0 mi SSW 10.4 mph - N/A   Clear
6:15 AM 53.8 °F 48.7 °F 83% 29.87 in 10.0 mi SSW 9.2 mph - N/A   Clear
6:35 AM 53.6 °F 48.7 °F 84% 29.87 in 10.0 mi SSW 9.2 mph - N/A   Clear
6:55 AM 54.5 °F 49.1 °F 82% 29.87 in 10.0 mi SSW 10.4 mph 16.1 mph N/A   Clear
7:15 AM 54.7 °F 49.3 °F 82% 29.87 in 10.0 mi SSW 11.5 mph - N/A   Clear
7:34 AM 54.5 °F 49.3 °F 83% 29.86 in 10.0 mi SSW 9.2 mph - N/A   Clear
7:55 AM 54.5 °F 49.5 °F 83% 29.87 in 10.0 mi SSW 9.2 mph - N/A   Clear
8:15 AM 55.6 °F 50.2 °F 82% 29.85 in 10.0 mi SSW 10.4 mph 16.1 mph N/A   Clear
8:34 AM 56.7 °F 50.9 °F 81% 29.85 in 10.0 mi SSW 11.5 mph - N/A   Clear
8:55 AM 56.7 °F 50.9 °F 81% 29.86 in 10.0 mi SSW 10.4 mph - N/A   Clear
9:15 AM 58.3 °F 51.8 °F 79% 29.86 in 10.0 mi SSW 11.5 mph 19.6 mph N/A   Clear
9:34 AM 60.1 °F 52.7 °F 77% 29.86 in 10.0 mi SSW 10.4 mph - N/A   Clear
9:55 AM 61.9 °F 54.1 °F 76% 29.85 in 10.0 mi South 10.4 mph 16.1 mph N/A   Clear
10:15 AM 63.0 °F 54.7 °F 74% 29.85 in 10.0 mi South 9.2 mph - N/A   Clear
10:35 AM 65.8 °F 56.3 °F 71% 29.84 in 10.0 mi South 9.2 mph - N/A   Clear
10:55 AM 67.8 °F 57.2 °F 69% 29.83 in 10.0 mi South 11.5 mph 17.3 mph N/A   Clear
11:14 AM 68.0 °F 58.1 °F 71% 29.83 in 10.0 mi South 12.7 mph 18.4 mph N/A   Clear
11:35 AM 69.3 °F 59.0 °F 70% 29.82 in 10.0 mi South 10.4 mph - N/A   Clear
11:55 AM 72.1 °F 59.7 °F 65% 29.82 in 10.0 mi SSW 8.1 mph 18.4 mph N/A   Clear
12:14 PM 73.2 °F 60.1 °F 63% 29.81 in 10.0 mi South 10.4 mph 18.4 mph N/A   Clear
12:35 PM 74.1 °F 60.1 °F 61% 29.80 in 10.0 mi SSW 10.4 mph 18.4 mph N/A   Clear
12:55 PM 75.0 °F 59.7 °F 59% 29.79 in 10.0 mi SSW 12.7 mph 18.4 mph N/A   Clear
1:14 PM 76.1 °F 59.5 °F 56% 29.79 in 10.0 mi SW 15.0 mph 20.7 mph N/A   Clear
1:35 PM 77.2 °F 59.0 °F 53% 29.79 in 10.0 mi SW 17.3 mph 26.5 mph N/A   Clear
1:55 PM 76.5 °F 58.8 °F 54% 29.78 in 10.0 mi SW 12.7 mph 23.0 mph N/A   Clear
2:15 PM 75.6 °F 59.4 °F 57% 29.77 in 10.0 mi SSW 16.1 mph 23.0 mph N/A   Clear
2:34 PM 75.0 °F 59.4 °F 58% 29.77 in 10.0 mi SW 16.1 mph 23.0 mph N/A   Clear
2:55 PM 76.5 °F 59.7 °F 56% 29.76 in 10.0 mi SW 16.1 mph 21.9 mph N/A   Clear
3:15 PM 77.2 °F 59.4 °F 54% 29.74 in 10.0 mi SSW 15.0 mph 25.3 mph N/A   Clear
3:34 PM 76.5 °F 59.2 °F 55% 29.73 in 10.0 mi SSW 15.0 mph 21.9 mph N/A   Clear
3:55 PM 77.2 °F 59.4 °F 54% 29.74 in 10.0 mi SW 13.8 mph 20.7 mph N/A   Clear
4:15 PM 78.4 °F 59.7 °F 52% 29.74 in 10.0 mi SW 13.8 mph 19.6 mph N/A   Clear
4:34 PM 78.6 °F 58.5 °F 50% 29.74 in 10.0 mi SW 16.1 mph 24.2 mph N/A   Clear
4:55 PM 77.9 °F 59.2 °F 52% 29.74 in 10.0 mi SSW 16.1 mph 23.0 mph N/A   Clear
5:14 PM 77.9 °F 59.5 °F 53% 29.74 in 10.0 mi SW 11.5 mph 19.6 mph N/A   Clear
5:35 PM 77.9 °F 59.9 °F 54% 29.74 in 10.0 mi SW 12.7 mph 18.4 mph N/A   Clear
5:55 PM 77.7 °F 59.4 °F 53% 29.74 in 10.0 mi WSW 12.7 mph 19.6 mph N/A   Clear
6:14 PM 76.8 °F 59.0 °F 54% 29.75 in 10.0 mi SW 13.8 mph 21.9 mph N/A   Clear
6:35 PM 75.7 °F 59.4 °F 57% 29.76 in 10.0 mi SW 8.1 mph 16.1 mph N/A   Clear
6:55 PM 74.5 °F 59.5 °F 60% 29.77 in 10.0 mi SW 9.2 mph - N/A   Clear
7:14 PM 73.4 °F 59.9 °F 63% 29.78 in 10.0 mi WSW 9.2 mph - N/A   Clear
7:35 PM 72.1 °F 59.9 °F 65% 29.79 in 10.0 mi West 4.6 mph - N/A   Clear
7:55 PM 70.7 °F 60.1 °F 69% 29.80 in 10.0 mi WSW 4.6 mph - N/A   Clear
8:14 PM 70.7 °F 60.1 °F 69% 29.80 in 10.0 mi WSW 10.4 mph - N/A   Clear
8:35 PM 70.0 °F 60.3 °F 71% 29.80 in 10.0 mi WSW 5.8 mph - N/A   Clear
8:55 PM 69.6 °F 60.3 °F 72% 29.80 in 10.0 mi SW 8.1 mph - N/A   Clear
9:14 PM 68.9 °F 60.4 °F 74% 29.80 in 10.0 mi SW 6.9 mph - N/A   Clear
9:35 PM 68.4 °F 60.8 °F 77% 29.80 in 10.0 mi SW 12.7 mph 16.1 mph N/A   Clear
9:55 PM 68.0 °F 60.8 °F 78% 29.80 in 10.0 mi SW 8.1 mph - N/A   Clear
10:15 PM 68.0 °F 61.0 °F 78% 29.80 in 10.0 mi SW 13.8 mph 19.6 mph N/A   Clear
10:35 PM 67.6 °F 61.0 °F 79% 29.81 in 10.0 mi SW 8.1 mph - N/A   Clear
10:54 PM 67.1 °F 61.0 °F 81% 29.81 in 10.0 mi SW 9.2 mph - N/A   Clear
11:15 PM 66.6 °F 61.0 °F 82% 29.82 in 10.0 mi SW 10.4 mph 16.1 mph N/A   Clear
11:35 PM 66.4 °F 61.0 °F 83% 29.82 in 10.0 mi SW 9.2 mph - N/A   Clear
11:54 PM 66.2 °F 61.0 °F 83% 29.82 in 10.0 mi SW 9.2 mph - N/A   Clear